Simultaneous Nadir Overpasses (SNOs) Predictions

Prediction of SNOs between AURA and NPP Satellite Orbit:

Table of predicted SNOs for the next 14.0 days since TLE Epoch: 1/20/2024
Index Date (AURA) Time (AURA) Lat,Lon (AURA) SZA (AURA ) Date (NPP) Time (NPP) Lat,Lon (NPP) SZA (NPP ) Distance(km) Time Diff (sec)
1 01/21/2024 08:40:58 -80.17, 133.10 68.71 01/21/2024 08:39:59 -80.17, 133.15 68.68 1.08 59
2 01/21/2024 09:30:17 80.33, -57.70 111.01 01/21/2024 09:30:37 80.34, -57.53 110.97 3.15 20
3 01/23/2024 23:15:55 -80.20, -85.31 69.33 01/23/2024 23:15:24 -80.19, -85.46 69.28 2.88 31
4 01/24/2024 00:05:15 80.33, 83.57 110.45 01/24/2024 00:06:03 80.33, 83.54 110.42 0.57 48
5 01/26/2024 13:50:49 -80.28, 56.72 70.06 01/26/2024 13:50:46 -80.29, 56.82 70.08 2.10 3
6 01/29/2024 03:36:21 80.18, 29.43 109.47 01/29/2024 03:35:29 80.18, 29.35 109.52 1.62 52
7 01/29/2024 04:25:41 -80.34,-161.41 70.81 01/29/2024 04:26:08 -80.35,-161.25 70.86 3.06 27
8 01/31/2024 18:11:12 80.26, 171.41 108.66 01/31/2024 18:10:51 80.26, 171.51 108.66 1.94 21



Historial Predications of SNOs between AURA and NPP
